Simultaneous Nadir Overpasses (SNOs) Predictions

Prediction of SNOs between METOP-B and TERRA Satellite Orbit:

Table of predicted SNOs for the next 14.0 days since TLE Epoch: 5/4/2024
Index Date (METOP-B) Time (METOP-B) Lat,Lon (METOP-B) SZA (METOP-B ) Date (TERRA) Time (TERRA) Lat,Lon (TERRA) SZA (TERRA ) Distance(km) Time Diff (sec)
1 05/05/2024 04:27:25 80.24, 135.30 64.62 05/05/2024 04:27:31 80.24, 135.37 64.63 1.42 6
2 05/05/2024 05:18:02 -80.34, -56.18 115.21 05/05/2024 05:16:49 -80.35, -56.02 115.22 2.91 73
3 05/07/2024 18:57:41 80.16, -83.08 63.78 05/07/2024 18:58:28 80.17, -82.99 63.80 1.95 47
4 05/07/2024 19:48:16 -80.33, 86.08 115.96 05/07/2024 19:47:45 -80.32, 85.96 115.98 2.62 31
5 05/10/2024 10:18:33 -80.20,-132.95 116.86 05/10/2024 10:18:42 -80.20,-132.82 116.85 2.59 9
6 05/10/2024 11:09:07 80.37, 36.40 63.44 05/10/2024 11:07:58 80.37, 36.35 63.41 0.87 69
7 05/13/2024 00:48:47 -80.17, 9.20 117.56 05/13/2024 00:49:37 -80.17, 9.14 117.55 1.16 50
8 05/13/2024 01:39:24 80.27, 177.57 62.59 05/13/2024 01:38:55 80.27, 177.65 62.59 1.46 29
9 05/15/2024 16:09:39 80.21, -40.68 61.87 05/15/2024 16:09:50 80.21, -40.61 61.88 1.29 11



Historial Predications of SNOs between METOP-B and TERRA
